[[{"header":{"parameterUnit":"m.s-1","parameterCategory":1,"la1":30.2991,"la2":30.254,"lo1":-89.0895,"lo2":-89.0444,"dy":0.0017,"dx":0.0017,"nx":28,"ny":28,"refTime":"2024-12-14T09:00:00:Z","depth":0,"parameterNumber":2,"parameterNumberName":"U-component_of_WINDS"},"data":[0,0,0,0,0,0,0,0,0,0,0,0,0,0,0,0,0,0,0,0,0,0,0,0,0,0,0,0,0,0,0,0,0,0,0,0,0,0,0,0,0,0,0,0,0,0,0,0,0,0,0,0,0,0,0,0,0,0,-4.5822,-4.5822,0,-4.5823,-4.5823,-4.5823,-4.5698,-4.5694,-4.5691,-4.5688,-4.5693,-4.5696,-4.5699,0,0,0,0,0,0,0,0,0,0,0,0,0,-4.5713,-4.5716,-4.5822,-4.5822,-4.5822,-4.5823,-4.5823,-4.5823,-4.5698,-4.5694,-4.569,-4.5686,-4.5692,-4.5695,-4.5699,0,0,0,0,0,0,0,0,0,0,0,0,0,-4.5742,-4.5717,-4.5822,-4.5759,-4.5754,-4.5823,-4.5823,-4.5823,-4.5699,-4.5694,-4.5689,-4.5684,-4.569,-4.5695,-4.57,-4.583,0,0,-4.5715,-4.5717,0,0,0,0,0,0,0,0,-4.5741,-4.5747,-4.5768,-4.5764,-4.5758,-4.5755,-4.5787,-4.5826,-4.57,-4.572,-4.5688,-4.5682,-4.5718,-4.572,-4.5731,-4.583,-4.5831,-4.5715,-4.5718,-4.572,-4.5722,0,0,0,0,0,0,0,-4.5739,-4.5746,-4.5822,-4.5769,-4.5762,-4.5732,-4.5731,-4.5794,-4.5747,-4.5718,-4.5709,-4.571,-4.5714,-4.5727,-4.5731,-4.5831,-4.5715,-4.5719,-4.5722,-4.5724,-4.6039,-4.6044,0,0,0,0,0,0,-4.5745,-4.5745,-4.5822,-4.5822,-4.5737,-4.5738,-4.5737,-4.5761,-4.5746,-4.5739,-4.5715,-4.5705,-4.5721,-4.5725,-4.573,-4.5883,-4.572,-4.5725,-4.5728,-4.6033,-4.604,-4.6046,0,0,0,0,0,0,-4.5743,-4.5753,-4.5822,-4.5781,-4.5788,-4.5746,-4.5774,-4.5764,-4.5777,-4.5743,-4.5735,-4.5737,-4.5717,-4.5723,-4.5806,-4.5882,-4.5727,-4.5731,-4.6027,-4.6035,-4.6043,-4.619,0,0,0,0,0,0,-4.5741,-4.5753,-4.5802,-4.5783,-4.579,-4.5898,-4.5778,-4.5767,-4.5785,-4.5772,-4.5762,-4.5755,-4.5714,-4.58,-4.5811,-4.5886,-4.5735,-4.602,-4.6031,-4.604,-4.6178,-4.6202,-4.6223,0,0,0,0,0,-4.5737,-4.5843,-4.5805,-4.5815,-4.585,-4.5902,-4.5907,-4.5856,-4.5792,-4.5841,-4.5819,-4.5756,-4.5871,-4.581,-4.5821,-4.5898,-4.6015,-4.6028,-4.604,-4.6168,-4.6198,-4.6222,0,0,0,0,0,0,-4.5872,-4.584,-4.5796,-4.5899,-4.5905,-4.5881,-4.5941,-4.5888,-4.5912,-4.5899,-4.5836,-4.5835,-4.5929,-4.5921,-4.5853,-4.6024,-4.5932,-4.5947,-4.6026,-4.6053,-4.6075,-4.6076,-4.5739,0,0,0,0,0,-4.5914,-4.5958,-4.5928,-4.6022,-4.6026,-4.5984,-4.6005,-4.5965,-4.5968,-4.597,-4.5955,-4.5962,-4.5999,-4.6026,-4.6058,-4.6176,-4.6173,-4.6235,-4.6257,-4.6276,-4.629,-4.6354,-4.6381,-4.6086,-4.6086,-4.6086,0,0,-4.6,-4.5988,-4.602,-4.6048,-4.6048,-4.6097,-4.5986,-4.6042,-4.6079,-4.5979,-4.6057,-4.6046,-4.6049,-4.6151,-4.6195,-4.6148,-4.6371,-4.6291,-4.6306,-4.631,-4.6369,-4.6397,-4.6422,-4.6094,-4.6093,-4.6091,0,0,-4.6184,-4.6178,-4.6256,-4.6258,-4.6258,-4.6229,-4.6249,-4.6233,-4.6222,-4.6299,-4.6226,-4.6268,-4.6334,-4.634,-4.6352,-4.6539,-4.6482,-4.6551,-4.6668,-4.673,-4.6754,-4.6774,-4.6843,-4.6868,-4.6565,-4.6566,-4.6566,0,-4.6292,-4.6361,-4.6304,-4.6365,-4.6381,-4.6292,-4.6372,-4.6376,-4.6388,-4.6401,-4.6348,-4.643,-4.6426,-4.6528,-4.6574,-4.6586,-4.6607,-4.6552,-4.6755,-4.6775,-4.6793,-4.6857,-4.6883,-4.6574,-4.6573,-4.6572,-4.6571,0,-4.6495,-4.6545,-4.6608,-4.6621,-4.6644,-4.6714,-4.6669,-4.6698,-4.6657,-4.6635,-4.6715,-4.6707,-4.6737,-4.6758,-4.6718,-4.6856,-4.6827,-4.6765,-4.6671,-4.6831,-4.689,-4.6914,-4.6586,-4.6583,-4.6581,-4.6579,0,0,-4.6764,-4.6744,-4.6769,-4.6774,-4.6769,-4.6807,-4.6874,-4.6903,-4.693,-4.6942,-4.6998,-4.7056,-4.6999,-4.7013,-4.6973,-4.7028,-4.7179,-4.6959,-4.6958,-4.7002,-4.7332,-4.738,-4.7409,-4.714,-4.7145,-4.7148,-4.7332,0,-4.6943,-4.7055,-4.7006,-4.7124,-4.7171,-4.7088,-4.7146,-4.715,-4.7131,-4.7168,-4.7147,-4.719,-4.7111,-4.7119,-4.7169,-4.715,-4.7245,-4.7136,-4.7194,-4.7197,-4.7197,-4.744,-4.749,-4.7664,-4.7355,-4.7359,-4.7362,0,-4.7166,-4.7187,-4.731,-4.7297,-4.7315,-4.7369,-4.7392,-4.7428,-4.7432,-4.7414,-4.743,-4.7378,-4.7444,-4.735,-4.7442,-4.7369,-4.739,-4.7384,-4.7389,-4.7394,-4.729,-4.7453,-4.7718,-4.7746,-4.7398,-4.7395,-4.7392,0,-4.7352,-4.741,-4.7492,-4.7499,-4.7486,-4.7526,-4.7523,-4.752,-4.7542,-4.7562,-4.7576,-4.7605,-4.7621,-4.7645,-4.7603,-4.7538,-4.7702,-4.7603,-4.7691,-4.7692,-4.773,-4.7728,-4.8004,-4.7741,-4.7741,-4.774,-4.774,0,-4.7558,-4.7637,-4.7576,-4.7626,-4.7713,-4.7656,-4.7744,-4.7731,-4.773,-4.7778,-4.7707,-4.7754,-4.7695,-4.7736,-4.7704,-4.7786,-4.7793,-4.7782,-4.7773,-4.779,-4.7791,-4.7803,-4.7791,-4.7747,-4.7745,-4.7744,-4.7743,0,-4.7781,-4.7742,-4.7826,-4.7807,-4.7804,-4.7869,-4.7853,-4.79,-4.7876,-4.7937,-4.7948,-4.7911,-4.7956,-4.7916,-4.796,-4.7938,-4.8048,-4.802,-4.8047,-4.804,-4.813,-4.8123,-4.8424,-4.8462,-4.8174,-4.8176,-4.8179,0,-4.7916,-4.7975,-4.7962,-4.7989,-4.7989,-4.8033,-4.8054,-4.8001,-4.8026,-4.8035,-4.8081,-4.812,-4.8148,-4.8225,-4.8202,-4.8236,-4.8209,-4.8313,-4.8214,-4.8229,-4.8213,-4.8211,-4.8218,-4.8334,-4.8337,-4.834,-4.8342,0,-4.816,-4.8138,-4.8171,-4.8198,-4.8225,-4.8244,-4.8258,-4.8284,-4.8229,-4.8261,-4.8306,-4.8328,-4.8373,-4.8413,-4.8439,-4.8436,-4.8382,-4.8373,-4.8395,-4.8414,-4.8427,-4.8423,-4.8104,-4.8367,-4.8364,-4.8362,-4.8361,-4.836,-4.8343,-4.8393,-4.8392,-4.8431,-4.8436,-4.8451,-4.8494,-4.8475,-4.8512,-4.8543,-4.8509,-4.8565,-4.8568,-4.8597,-4.8602,-4.8645,-4.8602,-4.8634,-4.8642,-4.8651,-4.8665,-4.8419,-4.8649,-4.8649,-4.8648,-4.8647,-4.8647,0,-4.8585,-4.858,-4.8617,-4.8639,-4.8671,-4.8614,-4.8627,-4.8658,-4.8707,-4.8714,-4.8743,-4.8796,-4.8835,-4.8816,-4.885,-4.8889,-4.8865,-4.89,-4.8898,-4.8898,-4.8701,-4.8679,-4.8919,-4.8919,-4.8919,-4.8919,-4.8919,-4.8919,-4.8715,-4.8796,-4.8774,-4.8857,-4.8852,-4.8905,-4.8918,-4.8931,-4.8937,-4.8999,-4.9031,-4.9018,-4.9015,-4.9049,-4.9083,-4.9076,-4.9093,-4.9138,-4.9123,-4.8939,-4.8912,-4.8886,-4.8866,-4.9141,-4.9142,-4.9317,-4.9318,-4.932]},{"header":{"parameterUnit":"m.s-1","parameterCategory":1,"la1":30.2991,"la2":30.254,"lo1":-89.0895,"lo2":-89.0444,"dy":0.0017,"dx":0.0017,"nx":28,"ny":28,"refTime":"2024-12-14T09:00:00:Z","depth":0,"parameterNumber":3,"parameterNumberName":"V-component_of_WINDS"},"data":[0,0,0,0,0,0,0,0,0,0,0,0,0,0,0,0,0,0,0,0,0,0,0,0,0,0,0,0,0,0,0,0,0,0,0,0,0,0,0,0,0,0,0,0,0,0,0,0,0,0,0,0,0,0,0,0,0,0,-1.3934,-1.3934,0,-1.3942,-1.3942,-1.3942,-1.3903,-1.3902,-1.3901,-1.39,-1.3906,-1.3907,-1.3909,0,0,0,0,0,0,0,0,0,0,0,0,0,-1.3885,-1.3886,-1.3934,-1.3934,-1.3934,-1.3942,-1.3942,-1.3942,-1.3903,-1.3902,-1.39,-1.3899,-1.3906,-1.3907,-1.3909,0,0,0,0,0,0,0,0,0,0,0,0,0,-1.3901,-1.3886,-1.3934,-1.3916,-1.3914,-1.3942,-1.3942,-1.3942,-1.3903,-1.3902,-1.39,-1.3899,-1.3905,-1.3907,-1.3909,-1.3954,0,0,-1.3914,-1.3915,0,0,0,0,0,0,0,0,-1.39,-1.3902,-1.3919,-1.3917,-1.3916,-1.392,-1.3927,-1.3946,-1.3904,-1.3908,-1.39,-1.3898,-1.3912,-1.3913,-1.3918,-1.3954,-1.3954,-1.3915,-1.3916,-1.3916,-1.3917,0,0,0,0,0,0,0,-1.3899,-1.3902,-1.3937,-1.3919,-1.3917,-1.3907,-1.3907,-1.393,-1.3919,-1.3907,-1.3904,-1.3906,-1.3911,-1.3916,-1.3918,-1.3954,-1.3915,-1.3916,-1.3917,-1.3918,-1.4026,-1.4028,0,0,0,0,0,0,-1.39,-1.3901,-1.3937,-1.3937,-1.3903,-1.3909,-1.391,-1.392,-1.3919,-1.3917,-1.3907,-1.3904,-1.3914,-1.3916,-1.3918,-1.3969,-1.3916,-1.3918,-1.3919,-1.4024,-1.4026,-1.4028,0,0,0,0,0,0,-1.3899,-1.3904,-1.3937,-1.3919,-1.3922,-1.3912,-1.3924,-1.3921,-1.3927,-1.3919,-1.3916,-1.3915,-1.3913,-1.3916,-1.3945,-1.3969,-1.3919,-1.3921,-1.4022,-1.4025,-1.4027,-1.4073,0,0,0,0,0,0,-1.3898,-1.3904,-1.3921,-1.3919,-1.3923,-1.3964,-1.3925,-1.3922,-1.393,-1.3926,-1.3926,-1.3924,-1.3912,-1.3942,-1.3947,-1.3971,-1.3922,-1.402,-1.4023,-1.4026,-1.407,-1.4077,-1.4084,0,0,0,0,0,-1.3896,-1.3934,-1.3922,-1.3927,-1.3945,-1.3965,-1.3967,-1.3953,-1.3932,-1.3949,-1.3944,-1.3924,-1.3966,-1.3946,-1.395,-1.3975,-1.4018,-1.4022,-1.4026,-1.4066,-1.4076,-1.4084,0,0,0,0,0,0,-1.3938,-1.3933,-1.392,-1.3958,-1.3962,-1.3959,-1.398,-1.3964,-1.3974,-1.3969,-1.3951,-1.3951,-1.3983,-1.3982,-1.396,-1.4018,-1.3988,-1.3993,-1.4017,-1.4026,-1.4033,-1.4032,-1.3924,0,0,0,0,0,-1.3952,-1.397,-1.3964,-1.3998,-1.4001,-1.399,-1.3999,-1.3987,-1.3991,-1.3992,-1.3989,-1.3993,-1.4007,-1.4017,-1.4029,-1.4069,-1.4068,-1.4089,-1.4096,-1.4102,-1.4106,-1.4127,-1.4135,-1.4041,-1.4041,-1.4041,0,0,-1.398,-1.398,-1.3992,-1.4006,-1.4008,-1.4026,-1.3992,-1.4013,-1.4026,-1.3995,-1.4023,-1.4021,-1.4024,-1.4059,-1.4074,-1.4059,-1.4132,-1.4107,-1.4112,-1.4113,-1.4132,-1.414,-1.4148,-1.4044,-1.4044,-1.4043,0,0,-1.4041,-1.4043,-1.4071,-1.4073,-1.4077,-1.407,-1.4076,-1.4075,-1.4073,-1.41,-1.4077,-1.4092,-1.4117,-1.412,-1.4125,-1.4186,-1.4168,-1.4191,-1.4228,-1.4248,-1.4255,-1.4261,-1.4283,-1.4291,-1.4195,-1.4195,-1.4195,0,-1.4076,-1.4103,-1.4087,-1.4109,-1.4116,-1.409,-1.4117,-1.4121,-1.4128,-1.4133,-1.4116,-1.4146,-1.4146,-1.4181,-1.4196,-1.4201,-1.4208,-1.419,-1.4255,-1.4262,-1.4267,-1.4287,-1.4295,-1.4198,-1.4198,-1.4197,-1.4197,0,-1.4144,-1.4163,-1.4185,-1.4193,-1.4203,-1.4228,-1.4215,-1.4226,-1.4214,-1.4208,-1.4236,-1.4235,-1.4247,-1.4254,-1.4243,-1.4287,-1.4278,-1.4259,-1.4228,-1.4279,-1.4298,-1.4305,-1.4202,-1.4201,-1.42,-1.4199,0,0,-1.4232,-1.423,-1.4239,-1.4242,-1.4244,-1.4258,-1.4281,-1.4293,-1.4302,-1.4308,-1.4327,-1.4348,-1.433,-1.4336,-1.4324,-1.4342,-1.4389,-1.432,-1.432,-1.4332,-1.4438,-1.4451,-1.4461,-1.4378,-1.4379,-1.438,-1.4437,0,-1.429,-1.433,-1.4317,-1.4358,-1.4374,-1.4349,-1.437,-1.4373,-1.4368,-1.4381,-1.4375,-1.439,-1.4366,-1.4369,-1.4386,-1.438,-1.441,-1.4376,-1.4394,-1.4395,-1.4393,-1.447,-1.4485,-1.4539,-1.4444,-1.4445,-1.4446,0,-1.4364,-1.4373,-1.4415,-1.4414,-1.442,-1.4439,-1.4448,-1.4461,-1.4464,-1.4459,-1.4465,-1.4449,-1.4472,-1.4442,-1.4472,-1.4449,-1.4455,-1.4454,-1.4456,-1.4456,-1.4423,-1.4472,-1.4556,-1.4564,-1.4458,-1.4457,-1.4456,0,-1.4422,-1.4445,-1.4473,-1.4476,-1.4475,-1.4489,-1.4489,-1.449,-1.4498,-1.4506,-1.451,-1.4521,-1.4526,-1.4535,-1.4522,-1.4502,-1.4553,-1.4523,-1.4549,-1.455,-1.4561,-1.456,-1.4646,-1.4567,-1.4567,-1.4566,-1.4566,0,-1.4489,-1.4515,-1.4499,-1.4516,-1.4545,-1.4529,-1.4558,-1.4555,-1.4556,-1.4572,-1.4551,-1.4567,-1.4549,-1.4563,-1.4553,-1.4579,-1.4582,-1.4578,-1.4575,-1.458,-1.458,-1.4583,-1.4579,-1.4568,-1.4568,-1.4568,-1.4567,0,-1.4558,-1.4549,-1.4577,-1.4574,-1.4574,-1.4595,-1.4592,-1.4607,-1.4601,-1.4621,-1.4625,-1.4615,-1.463,-1.4618,-1.4633,-1.4626,-1.466,-1.4652,-1.4659,-1.4657,-1.4683,-1.4681,-1.4774,-1.4785,-1.4699,-1.47,-1.47,0,-1.4601,-1.4621,-1.462,-1.4629,-1.4631,-1.4646,-1.4653,-1.4638,-1.4647,-1.4651,-1.4666,-1.4679,-1.4688,-1.4713,-1.4707,-1.4717,-1.4709,-1.4741,-1.471,-1.4714,-1.4709,-1.4707,-1.4709,-1.4747,-1.4748,-1.4749,-1.4749,0,-1.4678,-1.4672,-1.4684,-1.4694,-1.4704,-1.4711,-1.4716,-1.4725,-1.471,-1.472,-1.4735,-1.4743,-1.4757,-1.477,-1.4779,-1.4778,-1.4761,-1.4759,-1.4766,-1.477,-1.4773,-1.4771,-1.4675,-1.4757,-1.4756,-1.4756,-1.4755,-1.4755,-1.4735,-1.4751,-1.4752,-1.4766,-1.4769,-1.4774,-1.4788,-1.4784,-1.4796,-1.4807,-1.4797,-1.4815,-1.4816,-1.4826,-1.4828,-1.4841,-1.4828,-1.4837,-1.484,-1.4842,-1.4846,-1.4772,-1.4843,-1.4842,-1.4842,-1.4842,-1.4842,0,-1.4809,-1.4809,-1.4822,-1.483,-1.4841,-1.4824,-1.4829,-1.4839,-1.4855,-1.4858,-1.4868,-1.4885,-1.4897,-1.4892,-1.4902,-1.4914,-1.4906,-1.4917,-1.4916,-1.4916,-1.4857,-1.485,-1.4923,-1.4923,-1.4923,-1.4923,-1.4923,-1.4923,-1.4849,-1.4876,-1.487,-1.4897,-1.4896,-1.4913,-1.4918,-1.4922,-1.4925,-1.4944,-1.4954,-1.4951,-1.4951,-1.4961,-1.4971,-1.4969,-1.4974,-1.4988,-1.4983,-1.4928,-1.492,-1.4912,-1.4905,-1.4989,-1.4989,-1.504,-1.504,-1.5041]}]]